TimeCDT,TemperatureF,Dew PointF,Humidity,Sea Level PressureIn,VisibilityMPH,Wind Direction,Wind SpeedMPH,Gust SpeedMPH,PrecipitationIn,Events,Conditions,WindDirDegrees,DateUTC
12:53 AM,57.0,44.1,62,29.91,10.0,SE,13.8,-,N/A,,Clear,130,2013-06-03 05:53:00
1:53 AM,54.0,44.1,69,29.90,10.0,ESE,10.4,-,N/A,,Clear,110,2013-06-03 06:53:00
2:53 AM,53.1,44.1,71,29.89,10.0,ESE,10.4,-,N/A,,Clear,120,2013-06-03 07:53:00
3:53 AM,52.0,44.1,74,29.88,10.0,ESE,12.7,-,N/A,,Clear,120,2013-06-03 08:53:00
4:53 AM,52.0,44.1,74,29.86,10.0,ESE,10.4,-,N/A,,Clear,110,2013-06-03 09:53:00
5:53 AM,51.1,44.1,77,29.83,10.0,ESE,9.2,-,N/A,,Clear,110,2013-06-03 10:53:00
6:53 AM,54.0,45.0,72,29.83,10.0,SE,15.0,21.9,N/A,,Clear,130,2013-06-03 11:53:00
7:53 AM,57.0,46.9,69,29.81,10.0,SSE,15.0,21.9,N/A,,Clear,150,2013-06-03 12:53:00
8:53 AM,61.0,48.0,62,29.80,10.0,SSE,23.0,32.2,N/A,,Clear,150,2013-06-03 13:53:00
9:53 AM,66.9,48.9,52,29.77,10.0,SSE,21.9,29.9,N/A,,Clear,160,2013-06-03 14:53:00
10:53 AM,70.0,50.0,49,29.75,10.0,SSE,27.6,32.2,N/A,,Clear,160,2013-06-03 15:53:00
11:53 AM,73.9,50.0,43,29.73,10.0,SSE,24.2,31.1,N/A,,Clear,150,2013-06-03 16:53:00
12:53 PM,78.1,51.1,39,29.71,10.0,South,20.7,32.2,N/A,,Clear,170,2013-06-03 17:53:00
1:53 PM,82.0,52.0,35,29.67,10.0,SSE,23.0,29.9,N/A,,Clear,150,2013-06-03 18:53:00
2:53 PM,88.0,52.0,29,29.63,10.0,South,20.7,27.6,N/A,,Clear,180,2013-06-03 19:53:00
3:53 PM,90.0,53.1,28,29.61,10.0,SSE,19.6,29.9,N/A,,Clear,150,2013-06-03 20:53:00
4:53 PM,91.0,52.0,26,29.59,10.0,SE,16.1,29.9,N/A,,Clear,140,2013-06-03 21:53:00
5:53 PM,86.0,52.0,31,29.60,10.0,SSE,16.1,-,N/A,,Clear,150,2013-06-03 22:53:00
6:53 PM,86.0,50.0,29,29.59,10.0,SE,25.3,34.5,N/A,,Clear,140,2013-06-03 23:53:00
7:53 PM,81.0,55.0,41,29.60,10.0,SE,16.1,25.3,N/A,,Clear,140,2013-06-04 00:53:00
8:53 PM,80.1,50.0,35,29.60,10.0,SSE,19.6,32.2,N/A,,Clear,150,2013-06-04 01:53:00
9:53 PM,75.9,55.0,48,29.60,10.0,SSE,16.1,25.3,N/A,,Clear,150,2013-06-04 02:53:00
10:53 PM,73.0,57.0,57,29.62,10.0,SSE,8.1,-,N/A,,Clear,150,2013-06-04 03:53:00
11:29 PM,78.8,51.8,39,29.78,9.0,ENE,9.2,38.0,N/A,,Clear,70,2013-06-04 04:29:00
11:53 PM,75.0,55.9,51,29.73,10.0,North,13.8,-,N/A,,Partly Cloudy,10,2013-06-04 04:53:00